Regional Weather Roundup
Issued by NWS

Home | Current Version | Previous Version | Graphics & Text | Print | Product List | Glossary On
Versions: 1 2 3 4 5 6 7 8 9 10 11 12 13 14 15 16 17 18 19 20 21 22 23 24 25 26 27 28 29 30 31 32 33 34 35 36 37 38 39 40 41 42 43 44 45 46 47
000
ASUS45 KCYS 271210
RWRWY

WYOMING REGIONAL WEATHER ROUNDUP
NATIONAL WEATHER SERVICE CHEYENNE WY
600 AM MDT THU AUG 27 2015

NOTE:  "FAIR" INDICATES FEW OR NO CLOUDS BELOW 12,000 FEET
WITH NO SIGNIFICANT WEATHER AND/OR OBSTRUCTIONS TO VISIBILITY.

WYZ001-271300-
YELLOWSTONE NATIONAL PARK

CITY           SKY/WX    TMP DP  RH WIND       PRES   REMARKS
LK YELLOWSTONE   N/A     39  36  89 CALM      30.41S
6HR MIN TEMP:  38; 6HR MAX TEMP:  47;

W YELLOWSTONE  NOT AVBL

$$
WYZ002>013-054>058-071-098>099-271300-
NORTHERN WYOMING

CITY           SKY/WX    TMP DP  RH WIND       PRES   REMARKS
JACKSON        CLOUDY    50  48  93 NW3       30.34S VSB 1
CODY           FAIR      55  48  76 CALM      30.16S
GREYBULL       CLOUDY    64  58  80 SW13      30.11S
6HR MIN TEMP:  63; 6HR MAX TEMP:  71; 6HR PCP:  0.01;

WORLAND        MOCLDY    61  59  93 S6        30.14S
6HR MIN TEMP:  61; 6HR MAX TEMP:  69; 6HR PCP:  0.12;

SHERIDAN       LGT RAIN  65  55  70 E7        30.12R
6HR MIN TEMP:  63; 6HR MAX TEMP:  79; 6HR PCP:  0.03;

BUFFALO        LGT RAIN  64  53  67 NW10      30.18R
6HR MIN TEMP:  63; 6HR MAX TEMP:  76; 6HR PCP: TRACE;

GILLETTE       FAIR      71  48  43 NW17G24   30.08F
6HR MIN TEMP:  71; 6HR MAX TEMP:  77;

HULETT         CLOUDY    70  52  52 CALM      30.08F
NEWCASTLE      FAIR      63  54  72 CALM      30.11R

$$
WYZ014>020-022>026-101>103-271300-
CENTRAL WYOMING

CITY           SKY/WX    TMP DP  RH WIND       PRES   REMARKS
BIG PINEY      MOCLDY    51  49  92 N7        30.33F
6HR MIN TEMP:  51; 6HR MAX TEMP:  55; 6HR PCP: TRACE;

PINEDALE       CLOUDY    52  52 100 W3        30.34F
DUBOIS         FAIR      46  45  93 NW13      30.30F
LANDER         CLOUDY    60  54  80 CALM      30.21S
6HR MIN TEMP:  58; 6HR MAX TEMP:  65; 6HR PCP: TRACE;

RIVERTON       CLOUDY    60  53  77 SW5       30.22S
6HR MIN TEMP:  59; 6HR MAX TEMP:  64;

CASPER         CLOUDY    64  48  56 W9        30.18R
6HR MIN TEMP:  64; 6HR MAX TEMP:  71;

DOUGLAS        CLOUDY    68  48  48 W20       30.12S
6HR MIN TEMP:  68; 6HR MAX TEMP:  75;


$$
WYZ021-027>030-104>119-271300-
SOUTHERN WYOMING

CITY           SKY/WX    TMP DP  RH WIND       PRES   REMARKS
EVANSTON       FOG       53  51  93 SW5       30.35S VSB 1/4
6HR MIN TEMP:  53; 6HR MAX TEMP:  57; 6HR PCP:  0.06;

KEMMERER       PTSUNNY   54  52  94 NW3       30.36R FOG
FORT BRIDGER   CLOUDY    55  55 100 W6        30.38R
ROCK SPRINGS   CLOUDY    55  54  96 W6        30.30S
6HR MIN TEMP:  55; 6HR MAX TEMP:  58; 6HR PCP: TRACE;

DIXON          CLOUDY    58  57  94 CALM      30.32S
RAWLINS        LGT RAIN  57  55  93 CALM      30.30S
6HR MIN TEMP:  56; 6HR MAX TEMP:  59; 6HR PCP:  0.04;

SARATOGA       DRIZZLE   55  54  94 CALM      30.32S
LARAMIE        LGT RAIN  54  50  86 W7        30.31R
6HR MIN TEMP:  54; 6HR MAX TEMP:  60; 6HR PCP: TRACE;

CHEYENNE       FAIR      65  50  58 NW15G23   30.18S
6HR MIN TEMP:  65; 6HR MAX TEMP:  67;

TORRINGTON     FAIR      64  61  90 NW6       30.05S
6HR MIN TEMP:  62; 6HR MAX TEMP:  71;

PINE BLUFFS    FAIR      68  50  52 NW10G16   30.11R

$$



USA.gov is the U.S. government's official web portal to all federal, state and local government web resources and services.